This is the latest recevied weather packets stored in our database for station/object SALT. If no packets are shown the sender has not sent any weather packets the latest 10 day(s).
| Time | Temp. | Humidity | Pressure | Rain* | Wind** | Luminosity | Snow |
|---|---|---|---|---|---|---|---|
| 1778253227 | 11.11° C | 34% | 1021.2 hPa | 0 mm | - | - | - |
| 1778252624 | 11.11° C | 33% | 1021.2 hPa | 0 mm | - | - | - |
| 1778252020 | 11.11° C | 34% | 1021.4 hPa | 0 mm | - | - | - |
| 1778251417 | 11.11° C | 36% | 1021.3 hPa | 0 mm | - | - | - |
| 1778250853 | 10.56° C | 35% | 1021.3 hPa | 0 mm | - | - | - |
| 1778250814 | 10.56° C | 35% | 1021.3 hPa | 0 mm | - | - | - |
| 1778250212 | 10.56° C | 36% | 1021.3 hPa | 0 mm | - | - | - |
| 1778249609 | 10.56° C | 35% | 1021.4 hPa | 0 mm | - | - | - |
| 1778249007 | 10° C | 35% | 1021.5 hPa | 0 mm | - | - | - |
| 1778248402 | 10° C | 33% | 1021.5 hPa | 0 mm | - | - | - |
| 1778247799 | 9.44° C | 36% | 1021.5 hPa | 0 mm | - | - | - |
| 1778247197 | 7.78° C | 37% | 1021.4 hPa | 0 mm | - | - | - |
| 1778246594 | 6.67° C | 43% | 1021.4 hPa | 0 mm | - | - | - |
| 1778245991 | 6.11° C | 40% | 1021.2 hPa | 0 mm | - | - | - |
| 1778245389 | 6.11° C | 41% | 1021 hPa | 0 mm | - | - | - |
| 1778244784 | 5.56° C | 42% | 1021 hPa | 0 mm | - | - | - |
| 1778244181 | 5° C | 43% | 1020.9 hPa | 0 mm | - | - | - |
| 1778243578 | 5.56° C | 45% | 1020.9 hPa | 0 mm | - | - | - |
| 1778242976 | 5.56° C | 43% | 1020.9 hPa | 0 mm | - | - | - |
| 1778241771 | 5° C | 43% | 1021 hPa | 0 mm | - | - | - |
| 1778241166 | 4.44° C | 45% | 1021 hPa | 0 mm | - | - | - |
| 1778240563 | 4.44° C | 47% | 1021.1 hPa | 0 mm | - | - | - |
| 1778239960 | 4.44° C | 48% | 1021 hPa | 0 mm | - | - | - |
| 1778239358 | 4.44° C | 48% | 1021 hPa | 0 mm | - | - | - |
| 1778238755 | 5° C | 48% | 1021.1 hPa | 0 mm | - | - | - |
* Rain latest 24 hours (hover to see other rain measurements)
** Current wind speed in m/s (hover to see current wind gust speed)